Weather in Bezlesny

Russia / Kemerovo Oblast     56°08′36″N   86°06′27″E
temp.,
°C
wind,
m/s
gust,
m/s
humid.,
%
clouds,
%
prec.,
mm/h
press.,
hPa
HPBL,
m
13 april, tue
tue1301:000w31099100 3.9 1024454
04:00+1nw3898100 1.4 1024474
07:00−1wnw389851 1.4 1026242
10:000nw3690100 0.0 1028697
13:00+2wnw468079 0.0 1029905
16:00+2w3889100 0.1 1029827
19:00+3w3785100 0.2 1028293
22:00+1w51288100 0.1 1029587
14 april, wed
wed1401:00+1w4109342 0.3 1029361
04:000wsw51194100 0.0 1028489
07:000wsw4998100 0.5 1028483
10:00+1sw51297100 0.5 1026533
13:00+1sw71597100 2.2 1023740
16:00+3wsw71595100 1.3 10201049
19:00+3w61497100 2.1 1020985
22:00+3w41197100 0.1 1021613
15 april, thu
thu1501:00+3wnw41097100 0.1 1022554
04:00+2w2599100 0.1 1024170
07:00+1wsw2499100 0.2 1025128
10:00+2sw2699100 0.0 1025290
13:00+3sw3899100 0.0 1024390
16:00+6sw488997 0.0 1022605
19:00+4sw41095100 0.0 1020461
22:00+3sw51198100 0.0 1019369
16 april, fri
fri1601:00+3sw51298100 0.0 1018356
04:00+3sw61396100 0.0 1016460
07:00+4sw61497100 0.0 1015515
10:00+5sw61494100 0.0 1013571
13:00+8sw71485100 0.0 1011726
16:00+12sw8147429 0.0 10081102
19:00+10w4118396 0.4 1008514
22:00+1nne5991100 2.9 1012509
17 april, sat
sat1701:000nne4897100 4.4 1012573
04:00−3nne51096100 3.3 1013569
07:00−4nne5994100 4.6 1014693
10:00−5nne5990100 1.7 1015732
13:00−3nne6874100 2.4 10151066
16:00−2ne6761100 0.0 10151334
19:00−4ne47705 0.0 1017926
22:00−8ne258885 0.0 101890